www.pogodaiklimat.ru
ПОГОДА в Янгиере

Архив погоды в Янгиере (Сырдарьинская область, Узбекистан)

Время
и дата
21:50 27.05
22:00 27.05
22:10 27.05
22:20 27.05
22:40 27.05
22:50 27.05
23:00 27.05
23:10 27.05
23:20 27.05
23:40 27.05
00:00 28.05
00:10 28.05
00:30 28.05
00:40 28.05
00:50 28.05
01:10 28.05
01:50 28.05
02:00 28.05
02:10 28.05
02:20 28.05
02:30 28.05
02:40 28.05
03:00 28.05
03:10 28.05
03:20 28.05
03:30 28.05
03:50 28.05
04:00 28.05
04:20 28.05
04:40 28.05
05:00 28.05
05:20 28.05
05:40 28.05
05:50 28.05
06:00 28.05
06:20 28.05
06:30 28.05
06:40 28.05
06:50 28.05
07:10 28.05
07:20 28.05
07:40 28.05
08:00 28.05
08:20 28.05
08:30 28.05
08:40 28.05
08:50 28.05
09:00 28.05
09:20 28.05
09:40 28.05
09:50 28.05
10:00 28.05
10:20 28.05
10:30 28.05
10:40 28.05
10:50 28.05
11:00 28.05
11:10 28.05
11:20 28.05
11:40 28.05
12:00 28.05
12:10 28.05
12:20 28.05
12:40 28.05
13:10 28.05
13:20 28.05
13:40 28.05
13:50 28.05
14:00 28.05
14:10 28.05
14:20 28.05
14:30 28.05
14:50 28.05
15:00 28.05
15:10 28.05
15:20 28.05
15:40 28.05
15:50 28.05
16:00 28.05
16:10 28.05
16:20 28.05
16:30 28.05
16:40 28.05
17:00 28.05
17:10 28.05
17:40 28.05
18:00 28.05
18:20 28.05
18:30 28.05
18:40 28.05
18:50 28.05
19:00 28.05
19:10 28.05
19:20 28.05
19:30 28.05
19:40 28.05
19:50 28.05
20:10 28.05
20:20 28.05
20:30 28.05
20:40 28.05
21:00 28.05
21:10 28.05
21:30 28.05
21:40 28.05
21:50 28.05
22:20 28.05
22:30 28.05
22:40 28.05
22:50 28.05
23:00 28.05
23:10 28.05
23:20 28.05
23:30 28.05
23:50 28.05
00:00 29.05
00:20 29.05
00:40 29.05
01:10 29.05
01:20 29.05
01:30 29.05
01:50 29.05
02:00 29.05
02:20 29.05
02:40 29.05
02:50 29.05
03:10 29.05
03:30 29.05
03:40 29.05
03:50 29.05
04:00 29.05
04:10 29.05
04:20 29.05
04:40 29.05
04:50 29.05
05:00 29.05
05:20 29.05
05:30 29.05
05:40 29.05
05:50 29.05
06:10 29.05
06:30 29.05
06:50 29.05
07:00 29.05
Ветер
(напр.,м/с)
Видимость Явления Солнечная радиация
(Вт/м2)
Т
(С)
Тd
(С)
f
(%)
Тe
(С)
Тes
(С)
Комфортность P
(гПа)
Po
(гПа)
Тmin
(С)
Tmax
(С)
R
(мм)
ЮВ 1.2
{1.5}
+19.0 +18.9 100 +22 +22 комфорт 1011.2 975.6 +19.4 +19.0
ЮВ 1.1
{1.5}
+18.7 +18.7 100 +21 +21 комфорт 1011.2 975.6 +19.1 +18.7
Ю 1.0
{1.2}
+18.3 +18.3 100 +20 +20 1011.2 975.6 +18.7 +18.3
Ю 1.0
{1.3}
+18.1 +18.1 100 +19 +19 1011.2 975.6 +18.3 +17.9
Ю 0.8
{1.4}
+17.8 +17.8 100 +19 +19 1011.2 975.6 +17.9 +17.8
Ю 0.8
{1.2}
+17.6 +17.6 100 +19 +19 1011.2 975.6 +17.8 +17.6
ЮЗ 1.0
{1.6}
+17.3 +17.3 100 +18 +18 1011.2 975.6 +17.6 +17.2
ЮЗ 1.1
{1.6}
+17.1 +17.1 100 +18 +18 1011.2 975.6 +17.3 +17.1
ЮЗ 0.9
{1.6}
+16.9 +16.9 100 +18 +18 1011.3 975.7 +17.1 +16.9
ЮЗ 1.3
{2.1}
+17.5 +17.5 100 +18 +18 1011.3 975.7 +17.5 +16.8
ЮЗ 0.8
{1.3}
+17.5 +17.5 100 +19 +19 1011.3 975.7 +17.8 +17.5
ЮЗ 1.1
{1.9}
+17.4 +17.4 100 +18 +18 1011.3 975.7 +17.5 +17.3
ЮЗ 1.2
{1.8}
+17.9 +17.9 100 +19 +19 1011.3 975.7 +17.9 +17.5
ЮЗ 1.3
{2.1}
+17.9 +17.9 100 +19 +19 1011.3 975.7 +18.0 +17.9
ЮЗ 1.5
{2.5}
+17.9 +17.9 100 +19 +19 1011.3 975.7 +17.9 +17.8
Ю 1.8
{2.8}
+17.5 +17.5 100 +18 +18 1011.0 975.5 +17.7 +17.5
ЮЗ 1.6
{2.8}
+17.6 +17.6 100 +18 +18 1010.7 975.2 +17.6 +17.5
ЮЗ 1.8
{2.9}
+17.7 +17.7 100 +18 +18 1010.7 975.2 +17.7 +17.6
ЮЗ 1.6
{2.7}
+17.7 +17.7 100 +18 +18 1010.6 975.1 +17.7 +17.7
ЮЗ 1.7
{2.9}
+17.5 +17.5 100 +18 +18 1010.6 975.1 +17.7 +17.5
ЮЗ 1.7
{3.0}
+17.4 +17.4 100 +18 +18 1010.6 975.1 +17.5 +17.4
ЮЗ 1.6
{3.1}
+17.3 +17.3 100 +18 +18 1010.6 975.1 +17.4 +17.3
ЮЗ 2.0
{3.2}
+17.3 +17.3 100 +18 +18 1010.6 975.1 +17.4 +17.3
ЮЗ 2.5
{4.2}
+17.4 +17.4 100 +18 +18 1010.6 975.1 +17.4 +17.3
ЮЗ 2.2
{4.1}
+17.4 +17.4 100 +18 +18 1010.6 975.1 +17.4 +17.4
ЮЗ 2.2
{3.5}
+17.4 +17.4 100 +18 +18 1010.7 975.2 +17.4 +17.4
ЮЗ 2.3
{3.8}
+16.9 +16.9 100 +17 +17 1010.8 975.3 +17.2 +16.9
ЮЗ 2.6
{4.0}
+16.9 +16.9 100 +17 +17 1010.8 975.3 +17.0 +16.9
ЮЗ 2.2
{3.7}
+16.8 +16.8 100 +17 +17 1010.9 975.4 +16.9 +16.8
ЮЗ 2.5
{3.8}
+16.5 +16.5 100 +16 +16 1011.3 975.7 +16.6 +16.5
ЮЗ 1.7
{3.2}
0.4 +16.4 +16.4 100 +17 +17 1011.6 976.0 +16.4 +16.4
ЮЗ 2.4
{3.4}
10.0 +15.9 +15.9 100 +16 +16 1011.7 976.1 +16.0 +15.9
ЮЗ 1.9
{3.2}
33.6 +16.6 +16.6 100 +17 +18 1011.9 976.3 +16.6 +16.1
ЮЗ 1.6
{2.9}
51.1 +16.8 +16.8 100 +17 +18 1012.0 976.4 +16.8 +16.6
ЮЗ 2.2
{3.5}
70.1 +17.3 +17.3 100 +18 +19 1012.0 976.4 +17.3 +16.8
ЮЗ 2.6
{4.2}
114.4 +18.3 +16.8 91 +19 +21 1012.1 976.5 +18.3 +17.9
З 1.7
{3.9}
137.3 +18.9 +17.1 89 +21 +24 комфорт 1012.2 976.6 +18.8 +18.3
З 2.3
{4.1}
161.7 +19.2 +16.1 83 +21 +24 комфорт 1012.2 976.6 +19.2 +18.9
З 2.5
{4.2}
188.0 +19.5 +15.9 80 +22 +26 комфорт 1012.3 976.7 +19.5 +19.2
З 2.7
{4.9}
237.0 +20.1 +14.4 70 +23 +28 комфорт 1012.5 976.9 +20.1 +19.9
З 2.6
{4.9}
261.4 +20.5 +14.2 67 +23 +28 комфорт 1012.5 976.9 +20.5 +20.1
З 2.4
{4.9}
315.0 +21.3 +13.7 62 +24 +30 комфорт 1012.5 976.9 +21.3 +20.9
З 2.7
{4.7}
370.7 +21.8 +11.8 53 +24 +31 комфорт 1012.6 977.0 +21.8 +21.5
З 2.0
{4.2}
428.3 +23.3 +11.3 47 +26 +35 жарко 1012.6 977.0 +23.3 +22.3
З 2.2
{5.5}
458.3 +23.7 +11.6 47 +25 +34 комфорт 1012.7 977.1 +23.7 +23.2
З 2.3
{4.4}
495.5 +23.7 +11.0 45 +25 +35 комфорт 1012.6 977.0 +23.8 +23.6
З 2.6
{5.1}
496.6 +24.0 +11.7 46 +26 +36 жарко 1012.7 977.1 +24.1 +23.7
З 2.4
{4.5}
517.5 +24.3 +11.3 44 +26 +36 жарко 1012.7 977.1 +24.4 +23.9
З 2.4
{4.3}
586.4 +25.2 +10.4 39 +26 +38 жарко 1012.8 977.2 +25.3 +24.9
З 2.5
{5.3}
618.8 +25.7 +11.0 39 +27 +39 жарко 1012.7 977.1 +25.7 +25.3
З 2.7
{4.5}
641.9 +25.7 +10.7 39 +27 +39 жарко 1012.8 977.2 +25.8 +25.6
З 2.9
{5.0}
646.3 +26.0 +10.4 37 +27 +39 жарко 1012.8 977.2 +26.1 +25.7
З 2.2
{4.3}
674.0 +26.8 +9.5 34 +27 +41 жарко 1012.7 977.1 +26.8 +26.2
СЗ 2.0
{5.7}
690.9 +27.1 +9.1 32 +27 +41 жарко 1012.7 977.1 +27.2 +26.8
СЗ 2.5
{5.5}
701.5 +27.4 +6.3 26 +27 +41 жарко 1012.7 977.1 +27.4 +27.1
СЗ 2.9
{5.1}
711.2 +27.5 +3.1 21 +26 +39 жарко 1012.7 977.1 +27.5 +27.2
СЗ 2.4
{5.5}
697.8 +28.0 +4.5 22 +27 +41 жарко 1012.7 977.1 +28.5 +27.4
СЗ 2.6
{5.2}
664.9 +28.4 +4.7 22 +27 +40 жарко 1012.7 977.1 +28.7 +28.0
СЗ 3.3
{6.1}
743.5 +28.3 +2.5 19 +26 +39 жарко 1012.7 977.1 +28.4 +28.2
СЗ 3.8
{7.4}
760.9 +28.3 +2.1 18 +26 +39 жарко 1012.8 977.2 +28.6 +28.2
СЗ 3.2
{6.7}
766.6 +28.8 +1.6 17 +27 +41 жарко 1012.7 977.1 +28.8 +28.3
СЗ 3.0
{7.8}
777.0 +29.0 -1.6 14 +26 +41 жарко 1012.8 977.2 +28.9 +28.6
СЗ 2.7
{5.1}
804.5 +29.5 -1.1 14 +27 +43 жарко 1012.7 977.1 +29.4 +28.9
С 3.3
{5.5}
773.1 +29.3 -2.0 13 +26 +40 жарко 1012.7 977.1 +29.4 +29.0
СЗ 3.3
{6.5}
763.8 +29.9 +0.7 15 +27 +41 жарко 1012.5 976.9 +29.9 +29.4
СЗ 3.2
{6.7}
757.6 +30.0 -1.7 13 +27 +41 жарко 1012.5 976.9 +30.1 +29.6
СЗ 2.9
{6.8}
744.2 +30.4 -0.4 14 +27 +41 жарко 1012.5 976.9 +30.4 +29.7
СЗ 3.7
{10.3}
736.2 +30.0 -1.2 13 +27 +40 жарко 1012.5 976.9 +30.4 +29.8
СЗ 3.9
{8.2}
725.4 +29.8 -3.0 12 +27 +39 жарко 1012.5 976.9 +30.1 +29.6
СЗ 3.5
{7.0}
714.1 +29.8 -3.7 11 +26 +39 жарко 1012.5 976.9 +30.0 +29.7
СЗ 3.1
{7.0}
696.9 +30.4 -1.1 13 +27 +40 жарко 1012.5 976.9 +30.4 +29.7
З 3.3
{6.3}
680.5 +30.1 +1.4 16 +28 +40 жарко 1012.5 976.9 +30.4 +29.6
СЗ 3.0
{5.5}
570.1 +30.0 +3.2 18 +28 +39 жарко 1012.4 976.8 +30.1 +29.6
СЗ 4.1
{8.1}
641.0 +29.7 +1.4 16 +27 +38 жарко 1012.4 976.8 +30.3 +29.7
СЗ 4.0
{8.1}
624.3 +29.5 +1.2 16 +27 +37 жарко 1012.4 976.8 +29.8 +29.5
СЗ 2.8
{6.3}
402.5 +29.4 +1.0 16 +27 +35 жарко 1012.4 976.8 +29.6 +29.3
СЗ 2.7
{4.8}
580.2 +30.1 +1.3 16 +28 +39 жарко 1012.4 976.8 +30.5 +29.2
СЗ 3.8
{6.9}
591.8 +29.7 +1.5 16 +27 +37 жарко 1012.4 976.8 +30.1 +29.7
СЗ 2.9
{6.2}
379.2 +29.5 +1.3 16 +27 +34 жарко 1012.3 976.7 +30.0 +29.5
СЗ 3.8
{7.5}
508.1 +30.0 +1.1 16 +27 +36 жарко 1012.3 976.7 +30.0 +29.5
СЗ 3.9
{7.8}
477.3 +29.5 +0.4 15 +27 +35 жарко 1012.3 976.7 +30.0 +29.5
СЗ 3.6
{7.0}
443.6 +29.6 0.0 15 +27 +35 жарко 1012.4 976.8 +29.8 +29.5
СЗ 2.3
{4.7}
416.4 +30.1 +0.4 15 +27 +35 жарко 1012.4 976.8 +30.1 +29.6
СЗ 3.9
{7.3}
364.3 +29.5 +0.2 15 +27 +33 жарко 1012.3 976.7 +29.7 +29.4
СЗ 3.9
{8.1}
337.9 +29.1 -0.4 15 +26 +32 жарко 1012.4 976.8 +29.5 +29.1
СЗ 3.8
{6.4}
259.9 +28.9 -0.2 15 +26 +30 жарко 1012.5 976.9 +29.0 +28.7
СЗ 3.7
{8.1}
202.0 +28.5 -0.5 15 +26 +29 жарко 1012.5 976.9 +28.9 +28.5
С 3.6
{6.1}
151.6 +28.0 +1.2 18 +26 +29 жарко 1012.6 977.0 +28.4 +28.0
С 3.3
{5.2}
126.2 +27.8 +2.3 19 +26 +28 жарко 1012.7 977.1 +28.0 +27.8
С 3.6
{5.5}
103.5 +27.7 +0.5 17 +26 +28 жарко 1012.7 977.1 +27.8 +27.7
С 3.0
{5.9}
84.8 +27.5 +1.5 19 +26 +28 жарко 1012.8 977.2 +27.7 +27.5
С 2.2
{4.7}
63.7 +27.1 +2.7 21 +26 +27 жарко 1012.9 977.3 +27.5 +27.1
С 2.0
{3.4}
44.5 +26.7 +2.9 22 +25 +26 комфорт 1012.9 977.3 +27.1 +26.7
С 1.5
{2.5}
18.8 +26.1 +3.9 24 +25 +25 комфорт 1013.0 977.4 +26.7 +26.1
С 1.3
{2.0}
9.8 +25.4 +4.0 25 +25 +25 комфорт 1013.0 977.4 +26.1 +25.4
С 1.2
{1.8}
4.0 +24.5 +4.8 28 +24 +24 комфорт 1013.0 977.4 +25.4 +24.5
С 1.2
{1.6}
0.2 +23.5 +5.0 30 +23 +23 комфорт 1013.0 977.4 +24.5 +23.5
СЗ 1.2
{2.0}
+21.9 +8.7 43 +23 +23 комфорт 1013.0 977.4 +22.6 +21.9
СЗ 1.2
{1.8}
+21.4 +8.1 42 +22 +22 комфорт 1013.1 977.5 +21.9 +21.4
СЗ 0.8
{1.6}
+20.9 +11.0 53 +24 +24 комфорт 1013.1 977.5 +21.4 +20.9
СЗ 1.2
{3.0}
+20.5 +11.4 56 +23 +23 комфорт 1013.2 977.6 +20.9 +20.5
СЗ 1.9
{3.7}
+23.1 +5.3 32 +23 +23 комфорт 1013.4 977.8 +23.1 +21.8
С 1.9
{3.3}
+23.1 +6.0 33 +24 +24 комфорт 1013.5 977.9 +23.2 +23.1
С 1.7
{2.8}
+22.4 +6.7 36 +23 +23 комфорт 1013.5 977.9 +22.7 +22.4
С 1.2
{2.2}
+21.6 +7.2 39 +22 +22 комфорт 1013.6 978.0 +22.4 +21.6
С 1.1
{1.9}
+20.9 +7.8 43 +23 +23 комфорт 1013.5 977.9 +21.6 +20.9
С 0.6
{1.3}
+18.0 +12.1 68 +20 +20 1013.4 977.8 +18.9 +18.1
С 0.7
{1.6}
+17.5 +13.0 75 +19 +19 1013.4 977.8 +18.0 +17.5
СЗ 0.5
{1.3}
+17.1 +13.2 78 +19 +19 1013.4 977.8 +17.5 +17.1
З 0.2
{0.5}
+16.9 +14.3 84 +19 +19 1013.4 977.8 +17.1 +16.9
Ю 0.5
{1.1}
+16.4 +15.4 93 +18 +18 1013.4 977.8 +16.9 +16.4
СЗ 0.8
{1.6}
+16.2 +15.0 93 +17 +17 1013.5 977.9 +16.4 +16.2
СЗ 1.4
{2.9}
+17.7 +10.7 63 +19 +19 1013.5 977.9 +17.8 +16.2
СЗ 1.6
{2.9}
+18.7 +8.1 50 +20 +20 1013.6 978.0 +18.6 +17.7
СЗ 1.4
{3.4}
+19.5 +7.9 47 +21 +21 комфорт 1013.5 977.9 +19.7 +19.5
З 0.6
{2.0}
+18.9 +9.6 55 +21 +21 комфорт 1013.6 978.0 +19.5 +18.9
СЗ 0.7
{1.1}
+17.3 +10.5 65 +19 +19 1013.6 978.0 +18.1 +17.3
СЗ 1.2
{2.1}
+17.9 +10.0 60 +19 +19 1013.6 978.0 +18.0 +17.3
З 1.3
{2.0}
+17.7 +10.6 63 +19 +19 1013.5 977.9 +18.2 +17.7
З 1.4
{2.0}
+17.3 +10.5 64 +18 +18 1013.5 977.9 +17.7 +17.3
З 1.4
{2.6}
+16.9 +11.1 69 +18 +18 1013.5 977.9 +17.3 +16.9
З 1.8
{2.6}
+16.9 +11.3 70 +17 +17 1013.4 977.8 +16.9 +16.9
З 1.6
{2.7}
+16.6 +11.7 73 +17 +17 1013.4 977.8 +16.9 +16.7
ЮЗ 1.8
{3.1}
+16.3 +12.3 77 +17 +17 1013.4 977.8 +16.4 +16.3
ЮЗ 1.7
{2.6}
+15.7 +12.6 82 +16 +16 1013.4 977.8 +16.0 +15.7
ЮЗ 1.9
{3.2}
+15.6 +12.9 84 +16 +16 1013.5 977.9 +15.7 +15.6
ЮЗ 2.4
{3.9}
+15.7 +12.8 83 +15 +15 1013.6 978.0 +15.7 +15.6
ЮЗ 2.6
{4.6}
+15.4 +13.1 86 +15 +15 1013.6 978.0 +15.6 +15.4
ЮЗ 3.2
{5.0}
+15.6 +12.6 82 +15 +15 1013.7 978.1 +15.6 +15.4
ЮЗ 2.9
{5.4}
+15.7 +12.4 81 +15 +15 1013.7 978.1 +15.8 +15.6
ЮЗ 3.0
{5.6}
+15.6 +12.4 81 +15 +15 1013.7 978.1 +15.7 +15.7
ЮЗ 2.8
{4.8}
+15.5 +12.5 82 +15 +15 1013.8 978.2 +15.6 +15.5
ЮЗ 3.0
{5.4}
+15.5 +12.2 81 +15 +15 1013.9 978.3 +15.5 +15.5
ЮЗ 2.8
{5.3}
+15.5 +11.9 79 +15 +15 1013.8 978.2 +15.6 +15.5
ЮЗ 2.7
{5.2}
+15.4 +11.8 79 +15 +15 1013.9 978.3 +15.5 +15.4
ЮЗ 2.4
{4.7}
0.5 +15.1 +12.1 82 +15 +15 1014.0 978.4 +15.4 +15.1
ЮЗ 2.8
{5.4}
9.6 +15.1 +11.8 81 +14 +14 1014.2 978.6 +15.1 +15.0
ЮЗ 2.9
{5.0}
22.6 +15.2 +11.6 79 +15 +15 1014.2 978.6 +15.2 +15.1
ЮЗ 2.7
{4.6}
38.1 +15.4 +11.1 75 +15 +16 1014.2 978.6 +15.4 +15.2
ЮЗ 2.7
{5.0}
56.8 +15.7 +10.8 72 +15 +16 1014.2 978.6 +15.7 +15.4
ЮЗ 2.2
{4.0}
98.7 +16.5 +10.5 68 +17 +19 1014.2 978.6 +16.5 +16.1
ЮЗ 2.5
{4.7}
145.9 +17.2 +9.4 60 +17 +20 1014.3 978.7 +17.2 +16.9
ЮЗ 2.5
{5.2}
196.0 +18.1 +8.5 53 +19 +23 1014.2 978.6 +18.1 +17.7
ЮЗ 2.7
{5.2}
221.6 +18.4 +7.4 49 +19 +23 1014.2 978.6 +18.4 +18.1
Местоположение метеостанции Янгиер (Сырдарьинская область, Узбекистан): широта 40.27 долгота 68.83 высота над уровнем моря 0 м.
В архиве по умолчанию представлена погода в Янгиере за последние 1-2 суток. Обновление информации о фактической погоде в базе происходит ежечасно! Архивные данные за месяц целиком и за предыдущие месяцы Вы можете получить, выбрав интересующий диапазон дат из раскрывающегося списка и нажав кнопку "Ввод!".
*Определитесь, кто Вы:
Внимание! Время в таблицах - местное (без учета летнего времени). Для получения всемирного времени необходимо вычесть поправку, которая равна 5 ч.
Смотрите также архив погоды на ближайших метеорологических станциях:
Партнеры нашего сайта:      
Пояснения к столбцам:
  • Ветер - указаны скорость ветра в м/с - средняя за 10 мин, порывы в срок и между сроками (в фигурных скобках) и направление, откуда дует ветер: С - северный,
  • СВ - северо-восточный, В - восточный, ЮВ - юго-восточный, Ю - южный, ЮЗ - юго-западный, З - западный, СЗ - северо-западный.
  • Видимость - горизонтальная дальность видимости в метрах или километрах. При видимости от 1 до 10 км при отсутствии осадков обычно наблюдается дымка, при ухудшении видимости до 1 км и менее - туман. В сухую погоду видимость может ухудшаться дымом, пылью или мглою.
  • Явления - указаны атмосферные явления, наблюдавшиеся в срок или в последний час перед сроком.
  • Солнечная радиация - мощность потока солнечного излучения на поверхность земли и предметов в Вт/м2.
  • T - Температура воздуха - температура, измеренная на высоте 2 м над землей.
  • Td - Температура точки росы - температура, при понижении до которой содержащийся в воздухе водяной пар достигнет насыщения.
  • f - Относительная влажность воздуха - влажноcть воздуха, измеренная на высоте 2 м над землей.
  • Te - Эффективная температура - температура, которую ощущает одетый по сезону человек в тени. Характеристика душности погоды. При расчете учитывается влияние влажности воздуха и скорости ветра на теплоощущения человека.
  • Tes - Эффективная температура на солнце - температура, которую ощущает человек, с поправкой на солнечный нагрев. Характеристика знойности погоды. Зависит от высоты солнца над горизонтом, облачности и скорости ветра. Ночью, в пасмурную погоду, а также при ветре 12 м/с и более поправка равна нулю.
  • P - Атмосферное давление - приведенное к уровню моря атмосферное давление.
  • Po - Атмосферное давление - измеренное на уровне метеостанции атмосферное давление.
  • Tmin - Минимальная температура - минимум температуры воздуха на высоте 2 м над землей.
  • Tmax - Максимальная температура - максимум температуры воздуха на высоте 2 м над землей.
  • R - Количество осадков - Количество выпавших осадков за период времени, мм. При наведении курсора мыши на число - период времени, за который выпало указанное количество осадков.